Puerto Plata, Dominican Republic

3:20 PM AST on December 15, 2018 (GMT -0400)
Gregorio Luperon International

Weather History for MDPP - October, 2018

Change the Weather History Date:

Friday, October 12, 2018

  Actual Average Record
Temperature  
Mean Temperature 82 °F -  
Max Temperature 91 °F 85 °F 96 °F (2015)
Min Temperature 72 °F 72 °F 71 °F (2014)
Cooling Degree Days 16    
Growing Degree Days 32 (Base 50)    
Moisture  
Dew Point 75 °F    
Average Humidity 80    
Maximum Humidity 100    
Minimum Humidity 61    
Precipitation  
Precipitation 0.00 in - - ()
Sea Level Pressure  
Sea Level Pressure 29.88 in    
Wind  
Wind Speed 3 mph ()    
Max Wind Speed 14 mph    
Max Gust Speed -    
Visibility 7.4 miles    
Events      
Averages and records for this station are not official NWS values.
T = Trace of Precipitation, MM = Missing Value Source: Averaged Metar Reports

Daily Weather History Graph

Daily Weather History Graph

Search for Another Location

Airport or City:

Astronomy

Oct. 12, 2018 Rise Set
Actual Time 6:35 AM AST 6:21 PM AST
Civil Twilight 6:13 AM AST 6:43 PM AST
Nautical Twilight 5:48 AM AST 7:08 PM AST
Astronomical Twilight 5:22 AM AST 7:34 PM AST
Moon 9:46 AM AST (10/12) 9:18 PM AST (10/12)
Length of Visible Light 12h 29m
Length of Day
11h 45m
Waxing Crescent, 14% of the Moon is Illuminated
Oct 12
Waxing Crescent
Oct 16
First Quarter
Oct 24
Full
Oct 31
Last Quarter
Nov 7
New

Hourly Weather History & Observations

Time (AST) Temp. Heat Index Dew Point Humidity Pressure Visibility Wind Dir Wind Speed Gust Speed Precip Events Conditions
2:00 AM 76 °F - 74 °F 94% 29.90 in 10 mi Calm Calm - -   Scattered Clouds
2:00 AM 75.2 °F - 75.2 °F 100% 29.89 in 6.2 mi Calm Calm - N/A   Scattered Clouds
5:00 AM 76 °F - 74 °F 92% 29.88 in 10 mi Calm Calm - -   Scattered Clouds
5:00 AM 75.2 °F - 73.4 °F 94% 29.86 in 6.2 mi Calm Calm - N/A   Partly Cloudy
7:00 AM 73.4 °F - 71.6 °F 94% 29.89 in 6.2 mi Calm Calm - N/A   Scattered Clouds
8:00 AM 75 °F - 73 °F 92% 29.91 in 10 mi Calm Calm - -   Scattered Clouds
8:00 AM 75.2 °F - 73.4 °F 94% 29.89 in 6.2 mi Calm Calm - N/A   Mostly Cloudy
9:00 AM 78.8 °F - 75.2 °F 89% 29.92 in 6.2 mi SSE 5.8 mph - N/A   Mostly Cloudy
10:00 AM 84.2 °F 90.9 °F 73.4 °F 70% 29.92 in 6.2 mi East 9.2 mph - N/A   Scattered Clouds
11:00 AM 86 °F - 74 °F 61% 29.94 in 10 mi East 8.9 mph - -   Scattered Clouds
11:00 AM 86.0 °F 95.1 °F 75.2 °F 70% 29.92 in 6.2 mi East 9.2 mph - N/A   Scattered Clouds
12:00 PM 87.8 °F 97.6 °F 75.2 °F 66% 29.92 in 6.2 mi East 9.2 mph - N/A   Scattered Clouds
1:00 PM 87.8 °F 102.5 °F 78.8 °F 75% 29.89 in 6.2 mi ENE 13.8 mph - N/A   Partly Cloudy
2:00 PM 87 °F - 78 °F 68% 29.87 in 10 mi ENE 11.2 mph - -   Scattered Clouds
2:00 PM 87.8 °F 99.7 °F 77.0 °F 70% 29.86 in 6.2 mi ENE 11.5 mph - N/A   Partly Cloudy
3:00 PM 87.8 °F 99.7 °F 77.0 °F 70% 29.83 in 6.2 mi ENE 11.5 mph - N/A   Partly Cloudy
4:00 PM 87.8 °F 99.7 °F 77.0 °F 70% 29.83 in 6.2 mi ENE 11.5 mph - N/A   Partly Cloudy
5:00 PM 89 °F - 77 °F 61% 29.85 in 10 mi ENE 11.2 mph - -   Scattered Clouds
5:00 PM 89.6 °F 102.2 °F 77.0 °F 66% 29.83 in 6.2 mi ENE 11.5 mph - N/A   Partly Cloudy
7:00 PM 84.2 °F 94.1 °F 77.0 °F 79% 29.86 in 6.2 mi Calm Calm - N/A   Scattered Clouds
8:00 PM 81 °F - 77 °F 83% 29.88 in 10 mi Calm Calm - -   Partly Cloudy
8:00 PM 80.6 °F 87.1 °F 77.0 °F 89% 29.86 in 6.2 mi Calm Calm - N/A   Scattered Clouds
9:00 PM 80.6 °F 86.2 °F 75.2 °F 84% 29.89 in 6.2 mi Calm Calm - N/A   Scattered Clouds
10:00 PM 80.6 °F 86.2 °F 75.2 °F 84% 29.92 in 6.2 mi Calm Calm - N/A   Scattered Clouds
11:00 PM 79 °F - 74 °F 81% 29.91 in 10 mi Calm Calm - -   Partly Cloudy
11:00 PM 78.8 °F - 75.2 °F 89% 29.89 in 6.2 mi Calm Calm - N/A   Scattered Clouds